Weather History for MMVR - November, 2012

Change the Weather History Date:

Monday, November 5, 2012

  Actual Average Record
Temperature  
Mean Temperature 74 °F -  
Max Temperature 80 °F 81 °F 91 °F (2003)
Min Temperature 68 °F 65 °F 64 °F (2008)
Cooling Degree Days 9    
Growing Degree Days 24 (Base 50)    
Moisture  
Dew Point 68 °F    
Average Humidity 85    
Maximum Humidity 94    
Minimum Humidity 65    
Precipitation  
Precipitation 1.45 in - - ()
Sea Level Pressure  
Sea Level Pressure 30.03 in    
Wind  
Wind Speed 4 mph ()    
Max Wind Speed 9 mph    
Max Gust Speed -    
Visibility 5.3 miles    
Events Rain    
Averages and records for this station are not official NWS values.
T = Trace of Precipitation, MM = Missing Value Source: Averaged Metar Reports

Daily Weather History Graph

Daily Weather History Graph

Search for Another Location

Airport or City:

Trip Planner

Search our weather history database for the weather conditions in past years. The results will help you decide how hot, cold, wet, or windy it might be!

Date:

Astronomy

Nov. 05, 2012 Rise Set
Actual Time 6:27 AM CST 5:49 PM CST
Civil Twilight 6:04 AM CST 6:11 PM CST
Nautical Twilight 5:38 AM CST 6:38 PM CST
Astronomical Twilight 5:12 AM CST 7:04 PM CST
Moon 11:26 PM CST (11/5) 11:45 AM CST (11/5)
Length of Visible Light 12h 07m
Length of Day
11h 21m
Waning Gibbous, 62% of the Moon is Illuminated
Nov 5
Waning Gibbous
Nov 6
Last Quarter
Nov 13
New
Nov 20
First Quarter
Nov 28
Full

Hourly Weather History & Observations

Time (CST) Temp. Heat Index Dew Point Humidity Pressure Visibility Wind Dir Wind Speed Gust Speed Precip Events Conditions
5:08 AM 69.8 °F - 68.0 °F 94% 30.02 in 6.0 mi North 6.9 mph - N/A   Overcast
5:48 AM 69.8 °F - 68.0 °F 94% 29.99 in 4.0 mi NNW 5.8 mph - N/A Rain Rain
6:18 AM 71.6 °F - 69.8 °F 94% 30.04 in 2.0 mi WNW 9.2 mph - N/A Rain Light Rain
6:42 AM 71.6 °F - 69.8 °F 94% 30.04 in 3.0 mi NW 5.8 mph - N/A   Overcast
7:26 AM 69.8 °F - 68.0 °F 94% 30.06 in 2.0 mi NNW 3.5 mph - N/A Rain Light Rain
7:50 AM 69.8 °F - 68.0 °F 94% 30.08 in 3.0 mi ESE 4.6 mph - N/A   Overcast
8:28 AM 69.8 °F - 68.0 °F 94% 30.10 in 2.0 mi Calm Calm - N/A Rain Light Rain
8:47 AM 69.8 °F - 68.0 °F 94% 30.06 in 3.0 mi East 5.8 mph - N/A Rain Light Rain
9:40 AM 68.0 °F - 66.2 °F 94% 30.12 in 3.0 mi NNE 4.6 mph - N/A Rain Light Rain
10:47 AM 71.6 °F - 69.8 °F 94% 30.09 in 6.0 mi Calm Calm - N/A   Overcast
11:40 AM 73.4 °F - 69.8 °F 88% 30.04 in 7.0 mi West 4.6 mph - N/A   Overcast
12:47 PM 77.0 °F - 69.8 °F 78% 30.02 in 7.0 mi Calm Calm - N/A   Overcast
1:44 PM 78.8 °F - 66.2 °F 65% 29.99 in 7.0 mi Calm Calm - N/A   Mostly Cloudy
2:45 PM 80.6 °F 83.2 °F 68.0 °F 65% 29.98 in 7.0 mi Calm Calm - N/A   Overcast
3:43 PM 78.8 °F - 68.0 °F 69% 29.98 in 7.0 mi North 4.6 mph - N/A   Overcast
4:43 PM 78.8 °F - 68.0 °F 69% 30.00 in 6.0 mi North 3.5 mph - N/A   Overcast
5:42 PM 75.2 °F - 68.0 °F 78% 29.96 in 6.0 mi North 3.5 mph - N/A   Overcast
6:43 PM 75.2 °F - 68.0 °F 78% 30.02 in 7.0 mi NNW 2.3 mph - N/A   Overcast
7:43 PM 75.2 °F - 68.0 °F 78% 30.05 in 7.0 mi WNW 3.5 mph - N/A   Overcast
8:43 PM 73.4 °F - 68.0 °F 83% 30.01 in 7.0 mi NW 2.3 mph - N/A   Overcast
9:43 PM 71.6 °F - 68.0 °F 88% 30.06 in 7.0 mi West 2.3 mph - N/A   Overcast
10:43 PM 73.4 °F - 68.0 °F 83% 30.06 in 7.0 mi NNW 3.5 mph - N/A   Overcast
11:41 PM 71.6 °F - 68.0 °F 88% 30.00 in 7.0 mi NW 2.3 mph - N/A   Overcast